Location: ??????
(41.3747°N, 22.5491°E)
Time: 14:47:49
(UTC+00:00)

Cosmos 2285 Rocket - Pass Details

Date: 01 December 2020
Orbit: 971 x 998 km, 74.0° (Epoch: 21 January)

Event Time Altitude Azimuth Distance (km) Brightness Sun altitude
Rises 15:41:30 0° 341° (NNW) 3,713 7.0 -7.7°
Reaches altitude 10° 15:44:05 10° 344° (NNW) 2,756 6.3 -8.1°
Maximum altitude 15:50:29 74° 69° (ENE) 1,023 4.0 -9.2°
Drops below altitude 10° 15:56:47 10° 155° (SSE) 2,721 6.3 -10.3°
Sets 15:59:19 0° 157° (SSE) 3,661 7.0 -10.8°
